Hourly Data Report for July 11, 2020

OTTAWA INTL A
ONTARIO
Current Station Operator: NAVCAN

45°19'00.000" N
75°40'00.000" W
114.90 m
6106001
71628
YOW

Download Data

Hourly Data (July 2020)
Hourly Data Report for July 11, 2020
TIME Temp Definition
°C
Dew Point Definition
°C
Rel Hum Definition
%
Wind Dir Definition
10's deg

Wind Spd Definition
km/h
Visibility Definition
km
Stn Press Definition
kPa
Hmdx Definition


Wind Chill Definition


Weather Definition


00:00 24.6 17.7 65 13 8 24.1 99.37 30   LegendNANA
01:00 24.1 17.4 66 18 7 24.1 99.32 30   Cloudy
02:00 22.1 19.4 85 16 5 24.1 99.25 29   Rain Showers
03:00 21.9 20.5 92 14 9 12.9 99.18 30   Rain Showers
04:00 21.5 20.8 96 10 7 24.1 99.13 30   Rain Showers
05:00 21.7 21.3 98 2 12 9.7 99.08 30   Rain Showers,Fog
06:00 22.1 21.7 98 4 10 16.1 99.02 31   LegendNANA
07:00 22.2 21.5 96 4 16 12.9 98.97 31   Drizzle
08:00 22.3 21.8 97 2 15 8.1 98.92 31   Fog
09:00 22.5 21.9 96 2 12 6.4 98.84 32   Drizzle,Fog
10:00 22.6 22.0 97 32 10 3.2 98.82 32   Drizzle,Fog
11:00 23.2 22.6 96 2 10 3.2 98.79 33   Drizzle,Fog
12:00 23.8 21.9 89 36 3 8.1 98.73 33   Rain Showers,Fog
13:00 24.5 22.7 89 26 10 16.1 98.69 34   Cloudy
14:00 25.2 22.8 86 25 17 24.1 98.66 35   LegendNANA
15:00 26.6 22.6 78 27 11 24.1 98.62 36   LegendNANA
16:00 27.4 22.0 72 29 16 24.1 98.59 37   Mostly Cloudy
17:00 26.0 21.5 76 26 10 24.1 98.61 35   LegendNANA
18:00 25.2 21.8 81 26 13 24.1 98.60 34   LegendNANA
19:00 25.1 22.1 84 29 9 24.1 98.61 35   Mostly Cloudy
20:00 21.4 19.9 91 30 14 24.1 98.60 29   LegendNANA
21:00 20.5 19.7 95 17 5 24.1 98.66 28   Drizzle
22:00 20.8 20.4 97 27 7 16.1 98.63 29   Cloudy
23:00 21.1 20.6 97 28 12 16.1 98.60 29   LegendNANA

Notes on Data Quality.

Legend

  • E = Estimated
  • M = Missing
  • NA = Not Available*
  • [empty] = Indicates an unobserved value
Date modified: